Terminal Aerodrome Forecast
Issued by NWS Pueblo, CO

Home | Current Version | Previous Version | Text Only | Print | Product List | Glossary On
Versions: 1 2 3 4 5 6 7 8 9 10 11 12 13 14 15 16 17 18 19 20 21 22 23 24
000
FTUS45 KPUB 181125
TAFALS
TAF
KALS 181125Z 1812/1912 VRB04KT P6SM FEW200
     FM181900 14008KT P6SM FEW110 SCT200
     FM190400 VRB06KT P6SM SCT100 BKN200=

USA.gov is the U.S. government's official web portal to all federal, state and local government web resources and services.